Waarnemingen

Advertentie
Mijn weer
F16-A, Nederland (6206): temperatuur & dauwpunt: 17.07.2017 10:00:00 - 23.07.2017 10:00:00 (CEST)F16-A, Nederland (6206): windsnelheid & windstoten: 17.07.2017 10:00:00 - 23.07.2017 10:00:00 (CEST)F16-A, Nederland (6206): windrichting: 17.07.2017 10:00:00 - 23.07.2017 10:00:00 (CEST)F16-A, Nederland (6206): luchtdruk: 17.07.2017 10:00:00 - 23.07.2017 10:00:00 (CEST)F16-A, Nederland (6206): zicht: 17.07.2017 10:00:00 - 23.07.2017 10:00:00 (CEST)
Datum & Tijd tt [°C] td [°C] ff [km/u] ff [kn] fx [km/u] fx [kn] dd ppp [hPa] vv [km]
23.07.2017 10:00:00 15,9 11,9 26 14 25 14 ZW 1009,7 10
23.07.2017 09:00:00 16,3 11,1 22 12 25 14 ZW 1009,3 32
23.07.2017 08:00:00 16,3 12,4 22 12 25 14 ZW 1009,4 10
23.07.2017 07:00:00 16,4 13,1 24 13 25 14 ZW 1009,2 10
23.07.2017 06:00:00 16,5 12,9 18 10 22 12 - 1009,5 10
23.07.2017 05:00:00 16,4 15,3 11 6 18 10 ZZW 1009,3 10
23.07.2017 04:00:00 16,6 15,3 16 9 18 10 - 1009,5 10
23.07.2017 03:00:00 16,7 15,0 13 7 14 8 ZZW 1010,0 10
23.07.2017 02:00:00 16,7 15,2 11 6 11 6 Z 1010,3 10
23.07.2017 01:00:00 16,8 15,5 5 3 11 6 - 1010,8 10
23.07.2017 00:00:00 16,7 15,6 8 4 11 6 OZO 1011,3 10
22.07.2017 23:00:00 16,6 15,0 8 4 7 4 O 1011,1 10
22.07.2017 22:00:00 16,5 13,6 5 3 14 8 - 1011,1 10
22.07.2017 21:00:00 16,4 14,7 8 4 11 6 O 1011,0 10
22.07.2017 20:00:00 16,6 14,9 11 6 11 6 Z 1011,3 10
22.07.2017 19:00:00 16,6 13,9 9 5 18 10 Z 1011,4 10
22.07.2017 18:00:00 17,2 15,2 15 8 29 16 - 1011,3 10
22.07.2017 17:00:00 17,9 15,4 26 14 25 14 Z 1011,3 10
22.07.2017 16:00:00 18,3 15,2 22 12 29 16 Z 1010,9 10
22.07.2017 15:00:00 18,2 16,1 34 18 32 18 Z 1010,9 10
22.07.2017 14:00:00 18,0 16,2 39 21 36 19 ZZO 1010,7 10
22.07.2017 13:00:00 17,7 16,0 34 18 36 19 ZO 1010,2 10
22.07.2017 12:00:00 17,6 15,6 34 18 32 18 ZO 1009,9 10
22.07.2017 11:00:00 17,4 15,0 31 17 32 18 ZO 1009,8 10
22.07.2017 10:00:00 17,6 14,5 35 19 36 19 ZO 1009,8 10
22.07.2017 09:00:00 17,8 14,8 37 20 36 19 OZO 1009,9 10
22.07.2017 08:00:00 17,6 14,6 37 20 36 19 OZO 1009,8 10
22.07.2017 07:00:00 17,7 14,1 37 20 36 19 OZO 1009,7 10
22.07.2017 06:00:00 17,5 14,0 37 20 36 19 OZO 1009,9 10
22.07.2017 05:00:00 17,2 14,9 39 21 40 21 OZO 1010,4 10
22.07.2017 04:00:00 17,2 14,2 41 22 40 21 OZO 1010,8 10
22.07.2017 03:00:00 17,2 14,1 39 21 40 21 OZO 1011,4 10
22.07.2017 02:00:00 17,1 13,9 37 20 36 19 OZO 1011,6 10
22.07.2017 01:00:00 17,1 13,1 35 19 36 19 O 1011,8 10
22.07.2017 00:00:00 17,1 12,9 35 19 36 19 OZO 1011,9 10
21.07.2017 23:00:00 17,1 13,1 37 20 36 19 OZO 1012,1 10
21.07.2017 22:00:00 17,4 13,2 31 17 32 18 OZO 1012,2 10
21.07.2017 21:00:00 17,5 14,5 24 13 25 14 OZO 1012,6 10
21.07.2017 20:00:00 17,3 14,3 16 9 18 10 OZO 1012,7 10
21.07.2017 19:00:00 17,4 13,1 15 8 18 10 ZO 1012,8 10
21.07.2017 18:00:00 17,3 13,4 18 10 22 12 ZO 1013,2 10
21.07.2017 17:00:00 17,2 13,5 18 10 18 10 ZO 1013,3 10
21.07.2017 16:00:00 17,3 13,8 16 9 18 10 ZZO 1013,6 10
21.07.2017 15:00:00 17,2 12,7 15 8 18 10 ZZO 1013,8 10
21.07.2017 14:00:00 17,0 12,5 16 9 22 12 Z 1013,8 10
21.07.2017 13:00:00 17,2 13,6 24 13 25 14 ZZO 1013,6 10
21.07.2017 12:00:00 16,9 14,9 28 15 25 14 ZZO 1013,4 10
21.07.2017 11:00:00 16,8 14,6 28 15 - - ZZO 1013,2 10
21.07.2017 10:00:00 16,7 14,3 28 15 29 16 ZZO 1013,0 10
21.07.2017 09:00:00 16,6 14,2 28 15 29 16 Z 1012,7 10
21.07.2017 08:00:00 16,3 13,7 26 14 25 14 Z 1012,3 10
21.07.2017 07:00:00 16,2 13,0 26 14 29 16 Z 1012,2 10
21.07.2017 06:00:00 16,1 12,3 22 12 25 14 ZZW 1011,8 29
21.07.2017 05:00:00 15,7 11,3 24 13 25 14 - 1011,6 10
21.07.2017 04:00:00 15,6 11,0 26 14 25 14 Z 1011,4 10
21.07.2017 03:00:00 15,4 9,9 21 11 22 12 WZW 1011,2 10
21.07.2017 02:00:00 15,2 10,7 24 13 25 14 WZW 1010,9 10
21.07.2017 01:00:00 15,2 9,9 26 14 25 14 W 1010,6 10
21.07.2017 00:00:00 15,3 10,4 22 12 29 16 WZW 1010,0 26
20.07.2017 23:00:00 15,4 11,0 26 14 32 18 W 1009,4 10
20.07.2017 22:00:00 15,5 12,3 37 20 40 21 W 1008,3 10
20.07.2017 21:00:00 15,9 12,7 36 19 47 25 W 1006,4 14
20.07.2017 20:00:00 16,7 14,9 32 18 47 25 ZW 1005,2 16
20.07.2017 19:00:00 17,9 16,3 40 21 50 27 Z 1005,0 14
20.07.2017 18:00:00 17,8 16,3 42 23 43 23 Z 1005,1 10
20.07.2017 17:00:00 17,6 16,7 34 18 43 23 Z 1005,5 10
20.07.2017 16:00:00 17,6 16,8 34 18 32 18 Z 1005,5 10
20.07.2017 15:00:00 17,5 16,7 35 19 32 18 Z 1005,5 10
20.07.2017 14:00:00 17,4 16,7 35 19 32 18 ZZW 1005,4 10
20.07.2017 13:00:00 17,1 16,4 35 19 32 18 Z 1005,3 10
20.07.2017 12:00:00 17,0 16,5 28 15 25 14 Z 1005,3 7
20.07.2017 11:00:00 17,0 16,4 18 10 22 12 ZZW 1005,5 10
20.07.2017 10:00:00 17,1 16,5 18 10 25 14 Z 1005,8 12
20.07.2017 09:00:00 17,0 16,2 18 10 22 12 Z 1005,7 10
20.07.2017 08:00:00 17,3 16,2 22 12 22 12 ZZW 1005,5 10
20.07.2017 07:00:00 17,3 16,3 29 16 29 16 ZW 1004,7 10
20.07.2017 06:00:00 17,5 16,3 31 17 32 18 ZW 1004,7 10
20.07.2017 05:00:00 17,4 16,5 31 17 36 19 ZZW 1005,0 10
20.07.2017 04:00:00 17,8 16,6 41 22 43 23 ZZW 1005,2 10
20.07.2017 03:00:00 18,1 16,7 48 26 47 25 ZZW 1005,5 10
20.07.2017 02:00:00 17,9 16,6 42 23 43 23 Z 1005,7 10
20.07.2017 01:00:00 18,7 16,6 40 21 50 27 Z 1005,9 13
20.07.2017 00:00:00 18,6 16,7 39 21 50 27 ZZO 1006,2 8
19.07.2017 23:00:00 18,7 16,5 41 22 47 25 ZZO 1005,9 10
19.07.2017 22:00:00 18,7 16,7 52 28 - - ZO 1005,9 10
19.07.2017 21:00:00 18,0 17,0 50 27 - - ZO - 10
19.07.2017 20:00:00 18,4 16,5 43 23 - - ZO 1005,8 10
19.07.2017 19:00:00 18,4 16,2 42 23 47 25 ZO 1006,5 10
19.07.2017 18:00:00 18,3 16,0 42 23 50 27 OZO 1006,9 10
19.07.2017 17:00:00 18,0 15,6 55 30 68 37 O 1006,6 10
19.07.2017 16:00:00 17,9 15,2 50 27 - - O 1007,1 10
19.07.2017 15:00:00 17,4 15,1 74 40 79 43 O 1007,6 10
19.07.2017 14:00:00 17,9 15,2 78 42 76 41 O 1007,6 10
19.07.2017 13:00:00 18,1 15,5 65 35 68 37 O 1008,5 8
19.07.2017 12:00:00 17,0 15,3 44 24 54 29 OZO 1009,8 3,6
19.07.2017 11:00:00 17,1 14,9 54 29 54 29 O 1010,4 10
19.07.2017 10:00:00 17,2 14,9 43 23 61 33 O 1011,0 13
19.07.2017 09:00:00 17,2 14,7 52 28 58 31 O 1011,6 10
19.07.2017 08:00:00 16,9 14,8 55 30 58 31 O 1012,3 10
19.07.2017 07:00:00 16,8 14,8 43 23 54 29 O 1013,0 12
19.07.2017 06:00:00 16,6 14,7 50 27 50 27 O 1013,7 10
19.07.2017 05:00:00 16,5 14,4 42 23 50 27 O 1014,5 10
19.07.2017 04:00:00 16,5 14,1 48 26 54 29 O 1015,4 10
19.07.2017 03:00:00 16,5 13,9 50 27 50 27 O 1016,2 10
19.07.2017 02:00:00 16,4 13,3 48 26 - - O 1016,5 10
19.07.2017 01:00:00 16,4 13,1 48 26 47 25 O 1016,8 10
19.07.2017 00:00:00 16,5 13,2 44 24 47 25 O 1017,5 10
18.07.2017 23:00:00 16,4 13,3 46 25 - - O 1017,9 10
18.07.2017 22:00:00 16,3 13,0 39 21 43 23 O 1018,3 10
18.07.2017 21:00:00 16,3 12,9 32 18 36 19 ONO 1018,9 27
18.07.2017 20:00:00 16,3 12,7 31 17 - - O 1019,5 10
18.07.2017 19:00:00 16,3 12,4 29 16 29 16 O 1019,8 10
18.07.2017 18:00:00 16,3 11,9 24 13 29 16 O 1020,1 10
18.07.2017 17:00:00 16,1 11,8 24 13 - - O 1020,6 10
18.07.2017 16:00:00 16,1 11,6 14 8 22 12 O 1021,2 27
18.07.2017 15:00:00 15,9 11,4 16 9 18 10 OZO 1021,8 10
18.07.2017 14:00:00 15,8 11,4 14 8 - - OZO 1022,3 30
18.07.2017 13:00:00 15,7 11,1 16 9 18 10 OZO 1022,6 10
18.07.2017 12:00:00 15,7 11,2 16 9 18 10 OZO 1022,9 10
18.07.2017 11:00:00 15,7 11,2 15 8 14 8 OZO 1023,0 10
18.07.2017 10:00:00 15,5 11,0 13 7 14 8 OZO 1023,1 10
18.07.2017 09:00:00 15,3 11,1 9 5 14 8 O 1023,1 10
18.07.2017 08:00:00 15,3 11,1 11 6 14 8 ONO 1023,0 10
18.07.2017 07:00:00 15,6 11,4 8 4 11 6 O 1023,0 10
18.07.2017 06:00:00 15,2 11,2 5 3 7 4 O 1022,9 10
18.07.2017 05:00:00 15,2 11,0 4 2 11 6 - 1022,9 10
18.07.2017 04:00:00 15,2 11,3 5 3 7 4 ONO 1023,1 10
18.07.2017 03:00:00 15,2 11,2 4 2 14 8 ONO 1023,3 10
18.07.2017 02:00:00 15,4 11,4 5 3 11 6 - 1023,5 10
18.07.2017 01:00:00 15,4 11,1 4 2 18 10 - 1023,5 10
18.07.2017 00:00:00 15,4 11,1 4 2 14 8 O 1023,4 30
17.07.2017 23:00:00 15,5 11,0 8 4 18 10 NNO 1023,4 10
17.07.2017 22:00:00 15,6 10,8 4 2 14 8 - 1023,4 10
17.07.2017 21:00:00 16,0 10,7 13 7 22 12 - 1023,3 10
17.07.2017 20:00:00 16,3 11,1 11 6 18 10 NW 1023,1 10
17.07.2017 19:00:00 16,4 11,3 13 7 14 8 WNW 1023,0 10
17.07.2017 18:00:00 16,3 11,8 11 6 14 8 WNW 1023,1 10
17.07.2017 17:00:00 16,3 11,9 9 5 18 10 W 1023,2 10
17.07.2017 16:00:00 16,2 11,1 16 9 18 10 WNW 1023,3 10
17.07.2017 15:00:00 16,2 10,7 16 9 18 10 W 1023,0 10
17.07.2017 14:00:00 16,0 11,6 15 8 18 10 W 1023,2 10
17.07.2017 13:00:00 16,1 11,5 18 10 22 12 W 1023,0 10
17.07.2017 12:00:00 16,2 10,8 21 11 32 18 WNW 1022,8 10
17.07.2017 11:00:00 16,1 10,7 29 16 32 18 WNW 1022,7 10
17.07.2017 10:00:00 16,8 10,7 29 16 36 19 WNW 1022,6 10

tt = temperatuur
td = dauwpunt
ff = windsnelheid
fx = windstoten
dd = windrichting
ppp = luchtdruk
vv = zicht

Weerstations in de omgeving